Terminal Aerodrome Forecast
Issued by NWS King Salmon, AK

Home | Current Version | Previous Version | Text Only | Print | Product List | Glossary On
Versions: 1 2 3 4 5 6 7 8 9 10 11 12 13 14 15 16 17 18 19 20 21 22 23 24 25 26 27 28 29 30 31 32 33 34 35 36 37
000
FTAK31 PANC 272341
TAFAKN
TAF
PAKN 272341Z 2800/2824 30012G24KT P6SM SCT035 BKN200
     FM280500 32015G32KT P6SM BKN050
     FM281200 32010G20KT P6SM SCT050
     FM282100 32010G15KT P6SM SCT025 BKN050=

USA.gov is the U.S. government's official web portal to all federal, state and local government web resources and services.